sat.trackr.live / text

‹ back to catalog

STARLINK-11244 [DTC]

NORAD 60926 · 2024-155C

PAYLOAD ACTIVE UNKNOWN

§ Identity

Operator
Country
US
Launch date
2024-08-31
Launch site
AFWTR
Launch vehicle
Mass (kg)
RCS (m²)

Purposes: comms

External: N2YO · Heavens-Above · Gunter

§ Orbital elements

Epoch: 2026-09-21T22:23:50.115552Z

Period
91.74 min
Inclination
53.1599°
Eccentricity
0.0001078
Mean motion
15.69704451 rev/d
Perigee alt
359.0 km
Apogee alt
360.5 km
Semi-major
6,737.9 km
B*
4.5029e-6
RAAN
93.9165°
Arg perigee
107.3546°
Mean anomaly
252.7590°
Rev number
11,927

§ Raw data

STARLINK-11244 [DTC]1 60926U 24155C   26264.93321893 -.00000043  00000+0  45029-5 0  99902 60926  53.1599  93.9165 0001078 107.3546 252.7590 15.69704451119274

JSON: /api/v1/satellites/60926 · /tle

For live sub-satellite position, see the globe view (requires WebGL).

§ Visibility from observer

Set your observer location to see the next 7 days of passes ≥ 10°. The values pass through the URL so the page stays shareable.

No JS? Fill the form by hand. The geolocation button needs JavaScript.